Tracking 17150 objects as of 4-August-2015
HD Live streaming from Space Station

COSMOS 2375 (GLONASS)

Track COSMOS 2375 (GLONASS) now!
COSMOS 2375 (GLONASS) is classified as:


NORAD ID: 26564
Int'l Code: 2000-063A
Perigee: 19,120.1 km
Apogee: 19,154.0 km
Inclination: 64.9 °
Period: 675.7 minutes
Semi major axis: 25508 km
RCS: 3.9905 m2 (large)
Launch date: October 13, 2000
Source: Commonwealth of Independent States (former USSR) (CIS)
SV:

Russia's version of the GPS system, functions the same; there has been cooperation between the two; much scaled-back constellation
Your satellite tracking list
Your tracking list is empty





NASA's NSSDC Master Catalog

Two Line Element Set (TLE):
1 26564U 00063A   15215.81672966 -.00000006  00000-0  00000+0 0  9997
2 26564 064.8768 088.2439 0006628 058.9256 261.9654 02.13101778115218

Source of the keplerian elements: AFSPC

N2YO: 342